Probability
0 0 0 3 0 0 0 0 0 0 0 0 0 0 6 39 45 61 100 100 100 100 100 100 100 100 100 100 100 100 100 97 81 32 16 10 3 3 3 32 32 23 35
0 0 0 0 0 0 0 0 0 0 0 0 0 0 0 10 29 42 61 100 100 100 100 100 100 100 100 100 100 100 97 100 90 48 10 3 3 3 3 6 10 13 23
0 0 0 0 0 0 0 0 0 0 0 0 0 0 0 0 0 10 26 35 48 97 100 100 100 100 100 97 90 77 65 65 55 26 6 3 0 0 0 0 0 3 3
0 0 0 0 0 0 0 0 0 0 0 0 0 0 0 0 0 0 3 6 3 6 45 65 74 84 87 77 65 39 23 26 10 3 3 3 0 0 0 0 0 0 0
0 0 0 0 0 0 0 0 0 0 0 0 0 0 0 0 0 0 0 0 0 0 0 0 0 13 42 52 71 42 13 3 16 10 0 0 0 0 0 0 0 0 0
0 0 0 0 0 0 0 0 3 3 0 0 0 0 0 0 0 0 0 0 0 0 0 0 0 0 0 0 6 39 26 10 23 13 6 0 0 0 0 0 0 0 0
23 0 0 0 0 3 3 3 19 6 0 0 0 0 0 0 0 0 0 0 0 0 0 0 0 0 0 0 0 6 65 42 26 26 10 0 0 0 0 0 0 0 0
48 16 0 0 6 23 3 3 19 0 0 0 0 0 0 0 0 0 0 0 0 0 0 0 0 0 0 0 0 0 3 35 35 19 6 3 0 0 0 0 0 0 0
71 55 13 0 0 13 13 16 10 3 0 0 0 0 0 0 0 0 0 0 0 0 0 0 0 0 0 0 0 0 0 0 6 3 10 10 6 3 6 0 0 0 0
97 87 61 26 3 3 13 3 10 10 0 0 0 0 0 0 0 0 0 0 0 0 0 0 0 0 0 0 0 0 0 0 0 0 6 3 6 6 0 0 0 0 0
97 97 81 55 16 0 0 0 0 6 6 0 0 0 0 0 0 0 0 0 0 0 0 0 0 0 0 0 0 0 0 0 0 0 0 0 0 0 0 0 0 0 0
100 97 90 77 39 3 0 0 3 13 3 0 0 0 0 0 0 0 0 0 0 0 0 0 0 0 0 0 0 0 0 0 0 0 0 0 0 0 0 0 0 0 0
97 100 97 87 52 6 0 0 0 0 0 0 0 0 0 0 0 0 0 0 0 0 0 0 0 0 0 0 0 0 0 0 0 0 0 0 0 0 0 0 0 0 0
65 65 74 81 55 23 0 0 0 0 0 0 0 0 0 0 0 0 0 0 0 0 0 0 0 0 0 0 0 0 0 0 0 0 0 0 0 0 0 0 0 0 0
29 23 32 39 45 39 10 3 0 0 0 0 0 0 0 0 0 0 0 0 0 0 0 0 0 0 0 0 0 0 0 0 0 0 0 0 0 0 0 0 0 0 0
6 26 16 13 16 23 16 3 0 0 0 0 0 0 0 0 0 0 0 0 0 0 0 0 0 0 0 0 0 0 0 0 0 0 0 0 0 0 0 0 0 0 0
39 29 16 6 6 0 0 0 0 0 0 0 0 0 0 0 0 0 0 0 0 0 0 0 0 0 0 0 0 0 0 0 0 0 0 0 0 0 0 0 0 0 0
39 23 13 0 0 3 3 0 0 0 0 0 0 0 0 0 0 0 0 0 0 0 0 0 0 0 0 0 0 0 0 0 0 0 0 0 0 0 0 0 0 0 0
35 29 10 6 0 3 0 0 0 0 0 0 0 0 0 0 0 0 0 0 0 0 0 0 0 0 0 0 0 0 0 0 0 0 0 0 0 0 0 0 0 0 0
42 16 13 10 3 0 0 0 0 0 0 0 0 0 0 0 0 0 0 0 0 0 0 0 0 0 0 0 0 0 0 0 0 0 0 0 0 0 0 0 0 0 0
26 16 10 6 6 10 3 0 0 0 0 0 0 0 0 0 0 0 0 0 0 0 0 0 0 0 0 0 0 0 0 0 0 0 0 0 0 0 0 0 0 0 0
32 16 13 6 6 3 3 0 0 0 0 0 0 0 0 0 0 0 0 0 0 0 0 0 0 0 0 0 0 0 0 0 0 0 0 0 0 0 0 0 0 0 0
81 71 65 42 19 0 0 0 0 0 0 0 0 0 0 0 0 0 0 0 0 0 0 0 0 0 0 0 0 0 0 0 0 0 0 0 0 0 0 0 0 0 0
100 97 71 55 32 6 0 3 0 0 0 0 0 0 0 0 0 0 0 0 0 0 0 0 0 0 0 0 0 0 0 0 0 0 0 0 0 0 0 0 0 0 0
97 87 94 61 32 23 0 0 0 0 0 0 0 0 0 0 0 0 0 0 0 0 0 0 0 0 0 0 0 0 0 0 0 0 0 0 0 0 0 0 0 0 0
77 81 71 58 52 23 0 0 0 0 0 0 0 0 0 0 0 0 0 0 0 0 0 0 0 0 0 0 0 0 0 0 0 0 0 0 0 0 0 0 0 0 0
Height
5857 5856 5854 5853 5853 5853 5854 5854 5855 5855 5856 5857 5859 5860 5861 5862 5864 5866 5867 5869 5871 5872 5873 5875 5876 5877 5878 5881 5883 5886 5888 5890 5892 5894 5896 5897 5898 5898 5899 5899 5899 5899 5899
5855 5853 5853 5852 5852 5852 5852 5852 5853 5853 5854 5855 5856 5857 5858 5859 5860 5862 5864 5866 5868 5869 5870 5871 5873 5874 5877 5880 5882 5885 5887 5889 5892 5893 5895 5896 5896 5897 5897 5898 5898 5898 5898
5852 5851 5850 5850 5850 5850 5850 5851 5851 5851 5851 5852 5853 5854 5855 5856 5857 5859 5861 5863 5865 5866 5867 5868 5870 5872 5874 5877 5880 5883 5885 5888 5890 5892 5893 5894 5895 5895 5896 5896 5896 5896 5897
5850 5849 5848 5848 5848 5848 5848 5848 5848 5849 5849 5850 5850 5851 5852 5854 5855 5856 5858 5860 5862 5863 5864 5866 5867 5870 5872 5875 5878 5881 5883 5885 5887 5889 5891 5892 5893 5894 5894 5894 5895 5895 5896
5848 5847 5846 5845 5845 5845 5845 5845 5845 5846 5846 5847 5847 5848 5849 5851 5852 5853 5855 5857 5858 5860 5862 5863 5865 5868 5870 5872 5875 5878 5880 5882 5884 5886 5888 5890 5891 5892 5893 5893 5893 5894 5895
5845 5844 5843 5842 5842 5842 5842 5842 5842 5842 5843 5844 5844 5845 5846 5848 5849 5850 5852 5854 5855 5857 5859 5861 5863 5865 5868 5870 5872 5874 5877 5879 5881 5883 5885 5887 5889 5890 5891 5891 5892 5893 5894
5841 5840 5839 5838 5838 5838 5838 5838 5838 5839 5840 5841 5842 5843 5844 5845 5846 5847 5849 5851 5852 5854 5856 5858 5861 5864 5866 5868 5870 5872 5874 5876 5878 5879 5881 5884 5886 5887 5888 5890 5891 5892 5893
5835 5835 5835 5833 5833 5833 5833 5833 5834 5835 5836 5837 5839 5839 5841 5843 5844 5845 5846 5848 5849 5851 5853 5855 5858 5861 5864 5866 5868 5870 5872 5874 5875 5877 5879 5881 5882 5884 5886 5888 5889 5890 5891
5828 5829 5829 5828 5827 5826 5827 5827 5829 5830 5831 5833 5835 5837 5838 5839 5840 5842 5843 5845 5847 5848 5850 5853 5855 5858 5861 5863 5865 5868 5870 5872 5873 5875 5877 5878 5880 5881 5883 5885 5886 5888 5889
5821 5821 5821 5821 5820 5820 5821 5821 5823 5824 5826 5828 5830 5833 5835 5837 5838 5839 5841 5843 5844 5846 5848 5850 5852 5855 5858 5860 5862 5864 5867 5869 5870 5872 5874 5875 5877 5878 5880 5881 5883 5885 5886
5813 5813 5813 5813 5813 5813 5814 5815 5816 5818 5821 5822 5825 5827 5830 5833 5835 5837 5839 5841 5842 5844 5845 5847 5849 5851 5854 5856 5859 5861 5863 5865 5867 5869 5870 5872 5873 5874 5876 5878 5879 5881 5882
5806 5806 5806 5806 5806 5807 5808 5809 5810 5813 5815 5817 5819 5822 5825 5828 5831 5833 5836 5838 5840 5841 5843 5845 5847 5848 5850 5852 5855 5857 5860 5862 5864 5865 5867 5868 5869 5870 5872 5873 5875 5876 5877
5799 5799 5799 5799 5800 5801 5802 5804 5805 5808 5810 5812 5815 5817 5820 5824 5826 5829 5832 5835 5837 5839 5840 5842 5844 5845 5847 5849 5851 5853 5856 5858 5860 5862 5863 5864 5865 5866 5867 5868 5870 5871 5872
5793 5793 5793 5793 5794 5795 5797 5798 5800 5802 5804 5807 5809 5811 5815 5818 5821 5825 5828 5831 5834 5836 5837 5839 5840 5842 5844 5846 5848 5850 5852 5854 5856 5858 5859 5860 5861 5862 5863 5864 5865 5866 5867
5788 5788 5788 5788 5789 5790 5791 5793 5795 5796 5798 5800 5803 5805 5807 5810 5815 5819 5822 5826 5829 5831 5833 5835 5836 5838 5840 5842 5844 5846 5848 5851 5852 5854 5855 5856 5857 5858 5859 5859 5860 5861 5862
5784 5784 5784 5785 5785 5786 5787 5788 5789 5791 5792 5794 5796 5798 5801 5803 5808 5813 5816 5820 5823 5826 5828 5831 5833 5835 5836 5838 5840 5842 5843 5845 5847 5849 5851 5852 5853 5854 5854 5855 5856 5857 5857
5781 5780 5781 5781 5782 5782 5783 5783 5784 5785 5787 5788 5789 5791 5793 5796 5799 5805 5809 5813 5817 5820 5823 5825 5828 5830 5831 5833 5835 5837 5838 5840 5842 5844 5846 5847 5848 5849 5850 5851 5852 5852 5853
5777 5777 5777 5777 5777 5778 5778 5779 5779 5780 5781 5782 5783 5784 5786 5788 5792 5796 5801 5805 5809 5813 5816 5819 5821 5824 5826 5828 5829 5832 5834 5835 5837 5839 5840 5842 5843 5844 5845 5846 5847 5847 5848
5773 5772 5773 5773 5773 5773 5774 5774 5774 5775 5776 5777 5778 5778 5779 5781 5784 5787 5792 5797 5801 5804 5809 5812 5814 5817 5819 5821 5823 5825 5828 5830 5832 5833 5835 5836 5837 5838 5839 5840 5841 5841 5842
5767 5767 5767 5767 5768 5768 5768 5768 5769 5770 5771 5772 5772 5773 5773 5774 5776 5779 5784 5789 5793 5797 5800 5804 5806 5809 5811 5813 5816 5818 5821 5824 5826 5827 5828 5829 5831 5832 5832 5833 5834 5835 5835
5762 5761 5761 5761 5761 5761 5762 5762 5763 5764 5765 5766 5767 5768 5768 5769 5770 5773 5777 5782 5785 5789 5792 5796 5798 5801 5803 5805 5808 5811 5814 5816 5819 5819 5820 5821 5823 5824 5825 5826 5827 5827 5828
5755 5755 5754 5754 5754 5755 5755 5755 5756 5757 5759 5760 5761 5762 5763 5765 5766 5767 5770 5774 5778 5781 5784 5787 5791 5793 5795 5797 5800 5803 5805 5808 5810 5811 5811 5813 5814 5816 5817 5818 5819 5820 5821
5749 5748 5747 5747 5747 5747 5747 5748 5749 5750 5751 5753 5755 5756 5758 5759 5761 5763 5765 5768 5771 5774 5777 5780 5783 5786 5788 5790 5792 5794 5797 5798 5800 5801 5803 5804 5805 5808 5809 5810 5811 5812 5813
5742 5740 5740 5739 5739 5740 5740 5740 5741 5743 5744 5746 5748 5750 5752 5754 5755 5757 5759 5762 5764 5767 5770 5773 5776 5778 5780 5782 5784 5786 5787 5789 5791 5793 5793 5796 5797 5799 5801 5801 5803 5804 5804
5735 5734 5733 5732 5732 5732 5732 5732 5734 5735 5736 5738 5740 5742 5745 5747 5749 5750 5752 5755 5757 5760 5762 5765 5767 5769 5771 5774 5776 5777 5779 5780 5782 5784 5785 5787 5790 5791 5793 5793 5794 5796 5796
5729 5728 5727 5726 5725 5725 5725 5725 5726 5727 5728 5729 5731 5734 5736 5739 5741 5743 5745 5748 5750 5753 5755 5757 5759 5761 5763 5765 5767 5769 5770 5771 5773 5775 5776 5778 5781 5783 5785 5786 5786 5788 5789
Wind_Speed
16 17 16 14 13 12 11 10 11 13 15 17 17 18 19 21 22 22 22 21 19 17 16 14 13 13 15 17 16 14 13 13 13 12 10 7 7 7 6 5 5 5 5
17 17 16 14 13 13 12 12 12 12 14 16 17 17 18 19 21 22 22 21 19 17 16 15 14 14 16 19 18 16 15 14 13 13 11 9 8 8 6 6 6 6 5
18 19 17 15 13 13 13 13 13 13 14 15 16 16 15 15 16 18 19 19 19 16 14 14 14 15 17 20 20 18 17 16 15 14 13 11 10 9 9 8 8 7 5
18 20 20 16 14 13 13 14 15 15 15 15 16 16 14 14 14 15 17 18 18 17 14 13 14 15 17 19 20 19 18 18 16 15 14 12 12 12 11 10 9 8 6
19 20 22 20 16 14 15 16 16 16 16 15 15 15 14 14 14 15 16 17 18 18 16 15 15 15 15 17 19 20 20 19 18 17 16 15 15 14 12 11 9 8 6
22 22 23 23 20 18 17 17 18 17 16 15 14 14 13 13 13 14 15 16 17 18 16 16 16 15 15 16 17 18 18 19 19 18 17 17 16 15 12 10 8 7 5
25 24 24 26 25 22 20 19 19 19 17 15 14 14 13 12 12 13 14 15 16 16 16 17 16 16 15 16 16 16 17 17 17 17 17 16 15 14 12 10 8 6 5
27 27 26 27 28 26 23 21 20 20 18 17 16 15 13 13 11 11 12 13 14 15 15 17 17 16 16 16 16 16 15 15 14 14 13 13 13 13 13 12 9 7 6
29 28 27 27 29 28 25 23 21 22 21 20 19 17 16 14 12 11 11 11 12 13 14 16 17 18 17 17 17 16 15 14 13 12 12 12 11 12 14 13 11 9 8
30 28 27 27 28 28 25 22 23 23 22 21 21 20 19 17 14 12 11 10 9 10 12 14 17 19 19 19 19 18 16 15 14 14 14 14 13 13 14 15 14 13 12
30 29 27 26 26 25 23 22 23 24 22 22 22 22 20 19 18 15 13 11 9 8 9 11 14 17 19 20 20 19 18 17 16 16 16 16 16 16 16 17 18 17 16
28 27 26 25 24 24 23 21 20 21 20 21 22 23 22 21 21 19 16 13 11 9 8 9 10 13 17 19 19 19 19 18 17 16 15 15 15 16 16 17 19 19 19
25 24 24 24 23 23 24 23 21 21 21 22 22 24 24 24 24 22 19 16 14 12 11 10 10 11 13 15 17 18 17 17 16 15 14 14 14 15 16 17 18 20 20
21 21 21 21 21 22 23 24 23 23 23 24 25 26 26 26 26 25 23 20 18 17 15 14 14 14 14 15 15 16 16 15 15 15 15 15 15 15 16 17 18 20 21
18 18 19 18 18 19 21 22 23 24 24 25 27 28 27 28 27 28 27 25 23 21 19 17 17 17 17 17 17 17 17 16 16 16 17 17 17 17 16 16 17 18 19
17 17 17 17 17 17 18 19 21 22 23 24 26 28 29 30 29 29 29 27 25 24 22 20 19 19 19 19 19 19 20 19 18 18 18 19 19 18 17 17 17 17 18
16 16 16 17 17 17 17 18 18 20 21 23 26 29 31 33 33 32 31 30 28 27 24 22 21 20 20 20 20 20 20 20 20 18 19 19 19 19 18 18 18 18 19
16 17 17 17 18 18 18 18 18 18 19 20 21 26 31 33 34 36 35 33 31 29 27 24 22 22 22 22 23 22 21 21 21 20 19 19 19 19 19 18 19 20 20
18 18 19 19 20 19 19 19 20 20 20 20 20 20 24 31 35 37 36 33 31 30 29 28 26 24 24 24 25 25 24 23 22 22 21 21 21 21 20 20 21 21 21
19 20 20 21 22 22 22 22 21 22 22 21 20 19 20 24 32 36 35 32 31 30 31 30 28 27 27 26 26 27 26 25 25 26 26 25 25 25 24 24 23 23 24
20 20 20 22 23 23 24 24 24 23 22 22 21 20 19 20 24 31 34 33 32 31 31 30 29 28 29 29 28 28 27 27 27 28 29 28 28 28 28 27 26 26 25
22 21 21 21 22 24 25 26 26 25 25 24 23 21 21 21 21 23 27 29 30 30 30 29 29 29 30 31 31 29 28 27 28 30 31 30 30 29 30 29 29 28 27
22 23 23 23 23 24 25 26 27 27 26 26 25 24 23 22 22 22 23 25 27 28 29 30 30 29 29 30 30 29 28 27 28 30 31 31 31 30 30 30 30 30 29
23 24 24 24 24 24 26 27 27 27 27 27 27 26 25 25 24 24 24 25 25 27 28 28 29 30 30 30 30 29 28 27 27 28 31 31 31 30 30 31 31 31 30
23 23 23 23 24 25 26 27 27 28 28 29 29 28 27 26 26 26 26 25 26 26 26 27 27 28 30 31 32 32 31 31 30 29 31 30 29 29 29 30 31 30 30
20 19 19 20 21 22 24 26 27 27 28 29 30 30 29 27 25 25 25 25 25 25 25 26 27 28 29 30 31 32 33 33 32 31 32 32 30 30 30 30 31 31 30
Wind_Direction
330 336 334 315 299 284 269 257 248 244 244 246 245 242 243 244 245 247 247 247 249 253 257 256 250 239 225 218 214 210 207 205 202 201 205 230 260 273 269 269 283 283 277
327 330 337 327 305 286 271 258 254 248 245 249 249 247 248 248 248 246 244 244 248 252 253 250 243 232 220 217 216 216 216 216 214 212 217 239 261 275 272 270 277 274 267
323 322 325 326 312 293 274 259 253 250 247 249 249 248 251 252 251 244 240 239 241 245 247 243 236 225 217 215 215 217 220 222 222 222 227 241 261 278 277 273 271 265 254
316 318 315 315 311 296 277 261 255 252 252 250 247 248 252 253 252 246 240 238 239 240 240 233 224 219 216 215 217 219 222 225 228 230 235 246 261 277 277 273 268 258 246
308 309 310 306 304 293 279 265 258 254 254 252 247 247 251 255 254 249 241 240 241 240 235 226 220 217 217 218 222 225 228 230 233 237 241 250 260 271 272 269 263 248 238
298 299 299 302 300 293 278 265 256 252 252 249 245 244 249 256 258 250 243 242 242 240 234 227 222 220 223 224 225 226 229 233 237 242 246 251 256 259 259 254 243 231 232
291 291 292 294 296 294 283 267 254 248 246 243 241 242 246 252 258 250 242 241 241 239 233 229 226 225 229 230 229 229 231 235 239 243 245 246 247 245 240 230 221 224 238
288 288 288 288 289 289 283 268 251 242 240 239 238 237 241 246 253 251 243 240 238 235 231 229 226 226 231 234 231 228 230 233 235 236 238 239 240 234 223 216 220 234 255
287 287 286 285 283 282 280 268 250 238 235 234 233 234 235 238 244 245 241 238 236 234 231 228 225 224 230 233 229 224 223 227 231 234 238 240 242 235 222 220 227 243 261
288 286 284 281 279 277 274 267 252 241 234 233 232 232 233 234 234 235 236 235 235 236 235 231 227 224 227 231 231 229 229 232 238 242 245 246 248 247 239 235 238 248 262
287 283 280 278 275 272 267 262 253 244 238 234 234 234 232 230 229 231 233 232 231 235 239 238 233 227 227 230 233 234 237 240 243 245 245 246 247 248 247 245 245 250 258
285 280 276 274 269 265 259 260 252 247 243 240 238 236 233 229 226 227 230 232 231 233 237 241 240 234 230 231 234 237 240 242 244 245 245 246 247 248 250 249 249 251 255
287 280 275 272 265 259 256 254 251 250 250 250 248 241 235 232 228 226 228 230 233 237 240 242 243 243 239 236 236 239 240 241 243 244 246 248 250 252 252 252 253 254 255
287 279 274 270 264 257 253 251 252 254 255 254 252 247 239 236 232 229 228 229 233 237 241 242 243 243 243 242 242 242 242 242 244 248 249 251 254 256 256 256 256 256 256
285 280 276 271 266 258 252 251 252 255 256 256 253 249 240 234 235 233 231 231 234 236 239 240 243 243 242 243 243 245 246 246 249 251 253 255 257 259 260 261 262 262 260
284 282 278 273 270 265 257 254 256 255 257 256 253 251 243 233 237 236 233 232 235 236 239 239 241 244 245 244 243 245 249 250 250 253 256 257 256 257 258 260 262 264 265
282 279 276 272 270 267 263 261 262 258 259 259 257 252 246 239 236 239 236 234 237 238 240 242 241 243 247 249 248 246 249 251 251 252 255 256 254 253 254 257 261 265 266
279 274 272 270 269 266 265 264 265 264 265 264 264 255 248 241 237 237 238 236 236 237 238 241 242 244 245 247 248 247 248 251 253 251 252 254 254 253 254 257 263 265 264
280 273 268 268 268 267 266 266 266 267 268 267 266 261 251 241 236 234 237 237 237 237 237 239 246 249 248 246 248 249 249 250 254 255 255 255 256 258 259 261 263 263 263
282 276 270 267 267 266 265 265 265 265 265 267 266 263 255 243 237 235 236 237 238 239 240 242 247 250 250 248 248 252 253 253 255 258 259 258 259 261 262 263 262 262 264
285 279 273 269 266 265 264 264 263 262 262 263 263 260 255 249 243 239 238 238 240 240 242 243 247 249 251 252 252 255 258 258 256 257 259 259 260 261 262 262 262 260 260
287 283 277 271 267 265 263 261 260 259 259 260 260 258 255 250 246 244 241 240 240 239 240 243 247 249 252 255 256 258 261 260 257 254 256 258 259 260 262 262 259 257 257
287 285 281 274 269 266 264 262 261 259 257 256 257 256 255 253 251 249 248 248 247 243 243 246 248 250 252 255 258 260 260 260 257 256 257 258 259 260 262 260 257 256 258
285 282 279 275 269 266 265 265 263 261 258 255 254 253 253 253 253 253 252 252 252 250 250 251 251 252 252 254 255 258 260 260 259 258 259 259 259 259 257 256 256 257 259
284 280 277 274 270 265 264 265 265 263 261 257 254 252 251 251 251 251 251 250 250 250 249 250 251 252 253 254 254 257 258 259 260 260 261 261 259 257 254 254 255 257 260
283 279 277 275 273 269 266 266 265 263 262 260 256 252 251 251 251 250 249 249 249 249 249 250 252 254 255 256 256 255 256 257 258 259 260 260 257 255 252 252 255 257 259